| time (UTC) | temp F | wind direction | speed knots | gust knots | rain 1hr in | rain 24hr in | rain mn in | humidity % | barometer mb |
| 20260507052520 | 60 | 102 | 4.3 | 5.2 | 0.00 | 0.38 | 0.01 | 88 | 1012.1 |
| 20260507051543 | 60 | 139 | 2.6 | 2.6 | 0.00 | 0.38 | 0.01 | 89 | 1012.1 |
| 20260507050515 | 59 | 96 | 2.6 | 2.6 | 0.00 | 0.38 | 0.01 | 90 | 1011.9 |
| 20260507045538 | 58 | 97 | 3.5 | 3.5 | 0.00 | 0.38 | 0.01 | 92 | 1011.8 |
| 20260507044520 | 58 | 168 | 1.7 | 2.6 | 0.01 | 0.38 | 0.01 | 92 | 1011.7 |
| 20260507043522 | 59 | 178 | 1.7 | 1.7 | 0.01 | 0.38 | 0.01 | 91 | 1011.7 |
| 20260507042516 | 59 | 123 | 1.7 | 2.6 | 0.01 | 0.38 | 0.01 | 92 | 1011.6 |
| 20260507041540 | 59 | 0.0 | 0.0 | 0.01 | 0.38 | 0.01 | 90 | 1011.6 | |
| 20260507040520 | 60 | 203 | 0.9 | 0.9 | 0.01 | 0.38 | 0.01 | 88 | 1011.4 |
| 20260507035522 | 60 | 70 | 2.6 | 2.6 | 0.00 | 0.38 | 0.00 | 86 | 1011.4 |
| 20260507034514 | 60 | 71 | 3.5 | 3.5 | 0.00 | 0.38 | 0.00 | 87 | 1011.3 |
| 20260507033517 | 60 | 0.0 | 0.0 | 0.00 | 0.38 | 0.00 | 86 | 1011.3 | |
| 20260507032520 | 60 | 84 | 3.5 | 4.3 | 0.00 | 0.38 | 0.00 | 86 | 1011.4 |
| 20260507031522 | 61 | 81 | 3.5 | 3.5 | 0.00 | 0.38 | 0.00 | 85 | 1011.4 |
| 20260507030515 | 61 | 65 | 3.5 | 4.3 | 0.00 | 0.38 | 0.00 | 86 | 1011.4 |
| 20260507025517 | 60 | 69 | 3.5 | 3.5 | 0.00 | 0.38 | 0.00 | 87 | 1011.4 |
| 20260507024540 | 61 | 56 | 4.3 | 5.2 | 0.00 | 0.38 | 0.00 | 85 | 1011.3 |
| 20260507023542 | 60 | 61 | 6.1 | 7.8 | 0.00 | 0.38 | 0.00 | 86 | 1011.2 |
| 20260507022524 | 60 | 61 | 6.1 | 7.0 | 0.00 | 0.38 | 0.00 | 87 | 1011.4 |
| 20260507021517 | 60 | 63 | 2.6 | 4.3 | 0.00 | 0.38 | 0.00 | 88 | 1011.4 |
| 20260507020519 | 60 | 115 | 1.7 | 2.6 | 0.00 | 0.38 | 0.00 | 86 | 1011.4 |
| 20260507015542 | 61 | 71 | 2.6 | 3.5 | 0.00 | 0.38 | 0.00 | 86 | 1011.4 |
| 20260507014524 | 60 | 71 | 1.7 | 3.5 | 0.00 | 0.38 | 0.00 | 87 | 1011.4 |
| 20260507013517 | 61 | 28 | 2.6 | 2.6 | 0.00 | 0.38 | 0.00 | 86 | 1011.4 |
| 20260507012519 | 61 | 104 | 0.9 | 2.6 | 0.00 | 0.38 | 0.00 | 86 | 1011.4 |
| 20260507011522 | 60 | 17 | 1.7 | 2.6 | 0.00 | 0.38 | 0.00 | 86 | 1011.3 |
| 20260507010524 | 60 | 200 | 0.9 | 1.7 | 0.00 | 0.38 | 0.00 | 85 | 1011.4 |
| 20260507005517 | 60 | 96 | 2.6 | 2.6 | 0.00 | 0.38 | 0.00 | 84 | 1011.4 |
| 20260507004539 | 60 | 105 | 2.6 | 2.6 | 0.00 | 0.38 | 0.00 | 83 | 1011.4 |
| 20260507003522 | 60 | 96 | 2.6 | 2.6 | 0.00 | 0.38 | 0.00 | 82 | 1011.4 |
| 20260507002524 | 61 | 104 | 3.5 | 3.5 | 0.00 | 0.38 | 0.00 | 84 | 1011.4 |
| 20260507001517 | 61 | 171 | 2.6 | 5.2 | 0.00 | 0.38 | 0.00 | 84 | 1011.4 |
| 20260507000519 | 61 | 154 | 4.3 | 6.1 | 0.00 | 0.38 | 0.00 | 83 | 1011.4 |
| 20260506235522 | 61 | 157 | 4.3 | 5.2 | 0.00 | 0.38 | 0.00 | 84 | 1011.5 |
| 20260506234524 | 60 | 94 | 3.5 | 4.3 | 0.00 | 0.38 | 0.00 | 84 | 1011.6 |
| 20260506233517 | 61 | 83 | 2.6 | 3.5 | 0.00 | 0.38 | 0.00 | 83 | 1011.6 |
| 20260506232519 | 60 | 59 | 2.6 | 4.3 | 0.00 | 0.38 | 0.00 | 83 | 1011.7 |
| 20260506231522 | 60 | 43 | 3.5 | 5.2 | 0.00 | 0.38 | 0.00 | 82 | 1011.8 |
| 20260506230524 | 60 | 64 | 1.7 | 1.7 | 0.00 | 0.38 | 0.00 | 82 | 1012.0 |
| 20260506225517 | 60 | 133 | 3.5 | 5.2 | 0.00 | 0.38 | 0.00 | 83 | 1011.9 |
| 20260506224600 | 60 | 199 | 3.5 | 5.2 | 0.00 | 0.38 | 0.00 | 82 | 1011.7 |
| 20260506223522 | 60 | 96 | 6.1 | 7.0 | 0.00 | 0.38 | 0.00 | 81 | 1011.7 |
| 20260506222524 | 60 | 120 | 3.5 | 3.5 | 0.00 | 0.38 | 0.00 | 81 | 1011.9 |
| 20260506221517 | 60 | 120 | 2.6 | 4.3 | 0.00 | 0.38 | 0.00 | 81 | 1011.7 |
| 20260506220539 | 61 | 125 | 3.5 | 4.3 | 0.00 | 0.38 | 0.00 | 80 | 1011.6 |
| 20260506215522 | 60 | 98 | 3.5 | 4.3 | 0.00 | 0.38 | 0.38 | 80 | 1011.6 |
| 20260506214544 | 60 | 156 | 1.7 | 1.7 | 0.00 | 0.38 | 0.38 | 80 | 1011.6 |
| 20260506213516 | 60 | 10 | 1.7 | 2.6 | 0.00 | 0.38 | 0.38 | 78 | 1011.4 |
| 20260506212519 | 60 | 123 | 2.6 | 3.5 | 0.00 | 0.38 | 0.38 | 78 | 1011.5 |
| 20260506211521 | 61 | 142 | 1.7 | 2.6 | 0.00 | 0.38 | 0.38 | 78 | 1011.4 |
| 20260506210523 | 60 | 153 | 1.7 | 3.5 | 0.00 | 0.38 | 0.38 | 79 | 1011.6 |
| 20260506205515 | 60 | 175 | 0.9 | 1.7 | 0.00 | 0.38 | 0.38 | 79 | 1011.6 |
| 20260506204518 | 61 | 76 | 1.7 | 1.7 | 0.00 | 0.38 | 0.38 | 78 | 1011.6 |
| 20260506203520 | 61 | 124 | 0.9 | 1.7 | 0.00 | 0.38 | 0.38 | 78 | 1011.6 |
| 20260506202523 | 60 | 128 | 1.7 | 1.7 | 0.00 | 0.38 | 0.38 | 78 | 1011.5 |
| 20260506201524 | 61 | 179 | 3.5 | 6.1 | 0.00 | 0.38 | 0.38 | 79 | 1011.4 |
| 20260506200517 | 61 | 205 | 3.5 | 4.3 | 0.00 | 0.38 | 0.38 | 80 | 1011.4 |
| 20260506195519 | 61 | 183 | 5.2 | 6.1 | 0.00 | 0.38 | 0.38 | 83 | 1011.3 |
| 20260506194541 | 61 | 183 | 4.3 | 5.2 | 0.00 | 0.38 | 0.38 | 87 | 1011.2 |
| 20260506193524 | 61 | 204 | 6.1 | 9.6 | 0.00 | 0.38 | 0.38 | 87 | 1011.0 |
| 20260506192516 | 61 | 238 | 5.2 | 7.8 | 0.00 | 0.38 | 0.38 | 86 | 1011.0 |
| 20260506191518 | 61 | 208 | 1.7 | 2.6 | 0.00 | 0.38 | 0.38 | 86 | 1010.8 |
| 20260506190521 | 61 | 212 | 0.9 | 2.6 | 0.00 | 0.38 | 0.38 | 86 | 1010.6 |
| 20260506185523 | 62 | 201 | 2.6 | 3.5 | 0.00 | 0.38 | 0.38 | 85 | 1010.2 |
| 20260506184516 | 62 | 193 | 6.1 | 7.8 | 0.00 | 0.38 | 0.38 | 85 | 1010.1 |
| 20260506183559 | 62 | 177 | 6.1 | 7.8 | 0.00 | 0.38 | 0.38 | 84 | 1010.1 |
| 20260506182520 | 62 | 171 | 4.3 | 7.0 | 0.00 | 0.38 | 0.38 | 85 | 1010.2 |
| 20260506181522 | 62 | 160 | 5.2 | 8.7 | 0.00 | 0.38 | 0.38 | 86 | 1010.3 |
| 20260506180515 | 62 | 127 | 4.3 | 6.1 | 0.00 | 0.38 | 0.38 | 92 | 1010.2 |
| 20260506175537 | 62 | 189 | 2.6 | 4.3 | 0.00 | 0.38 | 0.38 | 92 | 1010.2 |
| 20260506174519 | 62 | 260 | 0.9 | 1.7 | 0.10 | 0.38 | 0.38 | 92 | 1010.1 |
| 20260506173542 | 62 | 228 | 1.7 | 3.5 | 0.10 | 0.38 | 0.38 | 93 | 1010.1 |
| 20260506172524 | 62 | 227 | 7.0 | 9.6 | 0.10 | 0.38 | 0.38 | 93 | 1010.0 |
| 20260506171516 | 62 | 222 | 5.2 | 6.1 | 0.10 | 0.38 | 0.38 | 92 | 1009.9 |
| 20260506170519 | 61 | 232 | 7.0 | 9.6 | 0.10 | 0.38 | 0.38 | 93 | 1009.8 |
| 20260506165521 | 62 | 211 | 6.1 | 10.4 | 0.11 | 0.38 | 0.38 | 89 | 1009.9 |
| 20260506164523 | 65 | 150 | 6.1 | 9.6 | 0.01 | 0.28 | 0.27 | 77 | 1008.9 |
| 20260506163515 | 65 | 156 | 5.2 | 6.1 | 0.01 | 0.27 | 0.27 | 77 | 1009.2 |
| 20260506162518 | 65 | 193 | 5.2 | 11.3 | 0.01 | 0.27 | 0.27 | 75 | 1009.5 |
| 20260506161521 | 65 | 156 | 7.8 | 9.6 | 0.00 | 0.27 | 0.27 | 74 | 1009.7 |
| 20260506160524 | 66 | 190 | 3.5 | 5.2 | 0.00 | 0.27 | 0.27 | 75 | 1009.7 |
| 20260506155515 | 66 | 161 | 6.1 | 9.6 | 0.00 | 0.27 | 0.27 | 74 | 1009.7 |
| 20260506154517 | 65 | 150 | 2.6 | 3.5 | 0.00 | 0.27 | 0.27 | 74 | 1009.9 |
| 20260506153520 | 66 | 172 | 4.3 | 7.8 | 0.00 | 0.27 | 0.27 | 76 | 1009.8 |
| 20260506152522 | 66 | 166 | 4.3 | 7.0 | 0.00 | 0.27 | 0.27 | 75 | 1010.1 |
| 20260506151545 | 65 | 162 | 5.2 | 6.1 | 0.00 | 0.27 | 0.27 | 80 | 1010.2 |
| 20260506150517 | 65 | 149 | 4.3 | 5.2 | 0.00 | 0.27 | 0.27 | 81 | 1010.4 |
| 20260506145519 | 64 | 82 | 2.6 | 3.5 | 0.00 | 0.27 | 0.27 | 79 | 1010.5 |
| 20260506144522 | 64 | 73 | 2.6 | 5.2 | 0.00 | 0.27 | 0.27 | 82 | 1010.5 |
| 20260506143544 | 63 | 35 | 3.5 | 7.8 | 0.00 | 0.27 | 0.27 | 82 | 1010.6 |
| 20260506142516 | 63 | 40 | 2.6 | 3.5 | 0.00 | 0.27 | 0.27 | 83 | 1010.7 |
| 20260506141518 | 62 | 31 | 3.5 | 5.2 | 0.00 | 0.27 | 0.27 | 87 | 1010.7 |
| 20260506140521 | 62 | 137 | 2.6 | 3.5 | 0.00 | 0.27 | 0.27 | 86 | 1010.7 |
| 20260506135523 | 62 | 154 | 0.9 | 1.7 | 0.00 | 0.27 | 0.27 | 87 | 1010.9 |
| 20260506134516 | 62 | 142 | 0.9 | 1.7 | 0.00 | 0.27 | 0.27 | 88 | 1010.9 |
| 20260506133541 | 62 | 229 | 2.6 | 3.5 | 0.00 | 0.27 | 0.27 | 86 | 1011.0 |
| 20260506132521 | 62 | 213 | 4.3 | 5.2 | 0.00 | 0.27 | 0.27 | 85 | 1011.1 |
| 20260506131523 | 62 | 201 | 3.5 | 4.3 | 0.00 | 0.27 | 0.27 | 85 | 1011.2 |
| 20260506130515 | 62 | 198 | 6.1 | 7.8 | 0.00 | 0.27 | 0.27 | 83 | 1011.4 |
| 20260506125517 | 63 | 191 | 6.1 | 7.8 | 0.00 | 0.27 | 0.27 | 82 | 1011.4 |
| 20260506124520 | 63 | 184 | 8.7 | 12.2 | 0.00 | 0.27 | 0.27 | 81 | 1011.4 |
| 20260506123522 | 61 | 192 | 10.4 | 11.3 | 0.00 | 0.28 | 0.27 | 81 | 1011.4 |
| 20260506122515 | 61 | 184 | 11.3 | 14.8 | 0.00 | 0.28 | 0.27 | 89 | 1011.4 |
| 20260506121517 | 61 | 197 | 11.3 | 14.8 | 0.00 | 0.28 | 0.27 | 88 | 1011.4 |
| 20260506120519 | 61 | 185 | 4.3 | 7.0 | 0.00 | 0.28 | 0.27 | 89 | 1011.4 |
| 20260506115522 | 60 | 172 | 4.3 | 5.2 | 0.00 | 0.28 | 0.27 | 90 | 1011.5 |
| 20260506114524 | 61 | 176 | 5.2 | 7.8 | 0.00 | 0.28 | 0.27 | 87 | 1011.4 |
| 20260506113517 | 61 | 179 | 6.1 | 7.8 | 0.00 | 0.28 | 0.26 | 84 | 1011.5 |
| 20260506112519 | 61 | 165 | 9.6 | 14.8 | 0.00 | 0.28 | 0.26 | 84 | 1011.6 |
| 20260506111521 | 61 | 162 | 6.1 | 7.8 | 0.00 | 0.29 | 0.26 | 85 | 1011.4 |
| 20260506110544 | 61 | 177 | 9.6 | 11.3 | 0.00 | 0.29 | 0.26 | 84 | 1011.6 |
| 20260506105516 | 61 | 171 | 4.3 | 6.1 | 0.00 | 0.29 | 0.26 | 86 | 1011.6 |
| 20260506104559 | 61 | 162 | 6.1 | 7.8 | 0.00 | 0.29 | 0.26 | 85 | 1011.6 |
| 20260506103521 | 61 | 171 | 7.0 | 8.7 | 0.01 | 0.29 | 0.26 | 86 | 1011.7 |
| 20260506102523 | 60 | 158 | 7.8 | 9.6 | 0.01 | 0.29 | 0.26 | 87 | 1011.9 |
| 20260506101516 | 60 | 140 | 7.0 | 9.6 | 0.01 | 0.29 | 0.26 | 89 | 1011.9 |
| 20260506100518 | 60 | 159 | 7.8 | 11.3 | 0.01 | 0.29 | 0.26 | 87 | 1012.0 |
| 20260506095520 | 60 | 161 | 9.6 | 11.3 | 0.01 | 0.29 | 0.26 | 86 | 1012.0 |
| 20260506094523 | 59 | 164 | 7.0 | 9.6 | 0.01 | 0.29 | 0.26 | 90 | 1012.2 |
| 20260506093515 | 59 | 176 | 6.1 | 9.6 | 0.01 | 0.29 | 0.26 | 93 | 1012.3 |
| 20260506092517 | 59 | 130 | 2.6 | 3.5 | 0.01 | 0.29 | 0.25 | 93 | 1012.1 |
| 20260506091521 | 60 | 128 | 3.5 | 4.3 | 0.01 | 0.29 | 0.25 | 92 | 1012.1 |
| 20260506090523 | 60 | 180 | 2.6 | 3.5 | 0.03 | 0.29 | 0.25 | 93 | 1012.1 |
| 20260506085515 | 60 | 81 | 5.2 | 7.0 | 0.05 | 0.29 | 0.25 | 94 | 1011.9 |
| 20260506084517 | 60 | 91 | 6.1 | 7.8 | 0.05 | 0.28 | 0.25 | 94 | 1011.9 |
| 20260506083520 | 60 | 92 | 5.2 | 7.0 | 0.06 | 0.28 | 0.25 | 93 | 1011.9 |
| 20260506082522 | 60 | 137 | 5.2 | 7.0 | 0.06 | 0.28 | 0.24 | 91 | 1012.0 |
| 20260506081514 | 60 | 137 | 6.1 | 8.7 | 0.08 | 0.27 | 0.24 | 94 | 1012.0 |
| 20260506080517 | 59 | 119 | 5.2 | 7.0 | 0.08 | 0.26 | 0.23 | 95 | 1011.9 |
| 20260506073524 | 59 | 124 | 2.6 | 3.5 | 0.07 | 0.23 | 0.19 | 98 | 1011.9 |
| 20260506072537 | 58 | 106 | 2.6 | 2.6 | 0.07 | 0.21 | 0.18 | 98 | 1011.9 |
| 20260506071519 | 58 | 356 | 0.9 | 0.9 | 0.06 | 0.19 | 0.16 | 99 | 1011.9 |
| 20260506070522 | 58 | 0 | 2.6 | 2.6 | 0.05 | 0.18 | 0.15 | 99 | 1011.9 |
| 20260506061544 | 58 | 200 | 0.0 | 0.0 | 0.10 | 0.13 | 0.10 | 98 | 1011.7 |
| 20260506060516 | 58 | 51 | 1.7 | 1.7 | 0.10 | 0.13 | 0.10 | 98 | 1011.7 |